User: anonymous   Login
Location: Caltech
(34.1382°N, 118.1253°W)
Time: 00:45:22
(UTC-07:00)
Language:

Tiros 1 despin weight - Orbit

View from above orbital plane
View from above orbital plane
View from above satellite
View from above satellite

Ground track
Ground track

The orbit data is extracted from the following two-line orbital elements,

1 00115U 60002D   14296.89268891  .00004350  00000-0  57748-3 0  4988
2 00115 048.1646 107.0783 0036395 163.7483 311.0106 14.80949490906715
Epoch (UTC): 23 October 2014 21:25:28
Eccentricity: 0.0036395
inclination: 48.1646°
perigee height: 601 km
apogee height: 652 km
right ascension of ascending node: 107.0783°
argument of perigee: 163.7483°
revolutions per day: 14.80949490
mean anomaly at epoch: 311.0106°
orbit number at epoch: 90671

The dashed part of the orbit path shows where the satellite is in the earth's shadow,  

DLR